Year,Month,Day,Hour,Minute,Value (Times are PST for temperature in C)
2013,04,28,00,00,8.40
2013,04,28,00,01,8.40
2013,04,28,00,02,8.40
2013,04,28,00,03,8.30
2013,04,28,00,04,8.30
2013,04,28,00,05,8.30
2013,04,28,00,06,8.20
2013,04,28,00,07,8.20
2013,04,28,00,08,8.20
2013,04,28,00,09,8.10
2013,04,28,00,10,8.00
2013,04,28,00,11,7.90
2013,04,28,00,12,7.90
2013,04,28,00,13,7.80
2013,04,28,00,14,7.80
2013,04,28,00,15,7.70
2013,04,28,00,16,7.70
2013,04,28,00,17,7.70
2013,04,28,00,18,7.70
2013,04,28,00,19,7.60
2013,04,28,00,20,7.60
2013,04,28,00,21,7.50
2013,04,28,00,22,7.50
2013,04,28,00,23,7.40
2013,04,28,00,24,7.30
2013,04,28,00,25,7.20
2013,04,28,00,26,7.20
2013,04,28,00,27,7.20
2013,04,28,00,28,7.10
2013,04,28,00,29,7.10
2013,04,28,00,30,7.10
2013,04,28,00,31,7.00
2013,04,28,00,32,7.00
2013,04,28,00,33,6.90
2013,04,28,00,34,6.80
2013,04,28,00,35,6.80
2013,04,28,00,36,6.80
2013,04,28,00,37,6.70
2013,04,28,00,38,6.70
2013,04,28,00,39,6.60
2013,04,28,00,40,6.60
2013,04,28,00,41,6.50
2013,04,28,00,42,6.50
2013,04,28,00,43,6.50
2013,04,28,00,44,6.50
2013,04,28,00,45,6.40
2013,04,28,00,46,6.40
2013,04,28,00,47,6.30
2013,04,28,00,48,6.30
2013,04,28,00,49,6.30
2013,04,28,00,50,6.20
2013,04,28,00,51,6.20
2013,04,28,00,52,6.20
2013,04,28,00,53,6.10
2013,04,28,00,54,6.10
2013,04,28,00,55,6.10
2013,04,28,00,56,6.00
2013,04,28,00,57,5.90
2013,04,28,00,58,5.90
2013,04,28,00,59,5.90
2013,04,28,01,00,5.90
2013,04,28,01,01,5.80
2013,04,28,01,02,5.80
2013,04,28,01,03,5.80
2013,04,28,01,04,5.80
2013,04,28,01,05,5.70
2013,04,28,01,06,5.70
2013,04,28,01,07,5.70
2013,04,28,01,08,5.70
2013,04,28,01,09,5.60
2013,04,28,01,10,5.60
2013,04,28,01,11,5.60
2013,04,28,01,12,5.60
2013,04,28,01,13,5.60
2013,04,28,01,14,5.60
2013,04,28,01,15,5.60
2013,04,28,01,16,5.60
2013,04,28,01,17,5.60
2013,04,28,01,18,5.60
2013,04,28,01,19,5.60
2013,04,28,01,20,5.50
2013,04,28,01,21,5.50
2013,04,28,01,22,5.50
2013,04,28,01,23,5.40
2013,04,28,01,24,5.40
2013,04,28,01,25,5.40
2013,04,28,01,26,5.40
2013,04,28,01,27,5.40
2013,04,28,01,28,5.40
2013,04,28,01,29,5.40
2013,04,28,01,30,5.30
2013,04,28,01,31,5.40
2013,04,28,01,32,5.40
2013,04,28,01,33,5.40
2013,04,28,01,34,5.50
2013,04,28,01,35,5.50
2013,04,28,01,36,5.40
2013,04,28,01,37,5.40
2013,04,28,01,38,5.40
2013,04,28,01,39,5.40
2013,04,28,01,40,5.40
2013,04,28,01,41,5.40
2013,04,28,01,42,5.40
2013,04,28,01,43,5.40
2013,04,28,01,44,5.40
2013,04,28,01,45,5.50
2013,04,28,01,46,5.60
2013,04,28,01,47,5.70
2013,04,28,01,48,5.80
2013,04,28,01,49,6.00
2013,04,28,01,50,6.10
2013,04,28,01,51,6.20
2013,04,28,01,52,6.30
2013,04,28,01,53,6.30
2013,04,28,01,54,6.30
2013,04,28,01,55,6.30
2013,04,28,01,56,6.30
2013,04,28,01,57,6.40
2013,04,28,01,58,6.40
2013,04,28,01,59,6.40
2013,04,28,02,00,6.40
2013,04,28,02,01,6.40
2013,04,28,02,02,6.40
2013,04,28,02,03,6.40
2013,04,28,02,04,6.30
2013,04,28,02,05,6.30
2013,04,28,02,06,6.30
2013,04,28,02,07,6.20
2013,04,28,02,08,6.20
2013,04,28,02,09,6.20
2013,04,28,02,10,6.20
2013,04,28,02,11,6.20
2013,04,28,02,12,6.10
2013,04,28,02,13,6.10
2013,04,28,02,14,6.10
2013,04,28,02,15,6.00
2013,04,28,02,16,6.00
2013,04,28,02,17,5.90
2013,04,28,02,18,5.90
2013,04,28,02,19,5.90
2013,04,28,02,20,5.90
2013,04,28,02,21,5.80
2013,04,28,02,22,5.80
2013,04,28,02,23,5.80
2013,04,28,02,24,5.70
2013,04,28,02,25,5.70
2013,04,28,02,26,5.60
2013,04,28,02,27,5.60
2013,04,28,02,28,5.50
2013,04,28,02,29,5.50
2013,04,28,02,30,5.40
2013,04,28,02,31,5.40
2013,04,28,02,32,5.30
2013,04,28,02,33,5.30
2013,04,28,02,34,5.30
2013,04,28,02,35,5.20
2013,04,28,02,36,5.20
2013,04,28,02,37,5.20
2013,04,28,02,38,5.10
2013,04,28,02,39,5.10
2013,04,28,02,40,5.00
2013,04,28,02,41,5.00
2013,04,28,02,42,4.90
2013,04,28,02,43,4.90
2013,04,28,02,44,4.90
2013,04,28,02,45,4.90
2013,04,28,02,46,4.80
2013,04,28,02,47,4.80
2013,04,28,02,48,4.70
2013,04,28,02,49,4.60
2013,04,28,02,50,4.50
2013,04,28,02,51,4.40
2013,04,28,02,52,4.30
2013,04,28,02,53,4.30
2013,04,28,02,54,4.20
2013,04,28,02,55,4.20
2013,04,28,02,56,4.10
2013,04,28,02,57,4.10
2013,04,28,02,58,4.10
2013,04,28,02,59,4.10
2013,04,28,03,00,4.10
2013,04,28,03,01,4.10
2013,04,28,03,02,4.10
2013,04,28,03,03,4.10
2013,04,28,03,04,4.10
2013,04,28,03,05,4.10
2013,04,28,03,06,4.10
2013,04,28,03,07,4.00
2013,04,28,03,08,4.00
2013,04,28,03,09,4.00
2013,04,28,03,10,3.90
2013,04,28,03,11,3.90
2013,04,28,03,12,3.80
2013,04,28,03,13,3.80
2013,04,28,03,14,3.80
2013,04,28,03,15,3.70
2013,04,28,03,16,3.70
2013,04,28,03,17,3.70
2013,04,28,03,18,3.60
2013,04,28,03,19,3.60
2013,04,28,03,20,3.60
2013,04,28,03,21,3.50
2013,04,28,03,22,3.50
2013,04,28,03,23,3.60
2013,04,28,03,24,3.60
2013,04,28,03,25,3.60
2013,04,28,03,26,3.60
2013,04,28,03,27,3.60
2013,04,28,03,28,3.60
2013,04,28,03,29,3.60
2013,04,28,03,30,3.60
2013,04,28,03,31,3.60
2013,04,28,03,32,3.50
2013,04,28,03,33,3.50
2013,04,28,03,34,3.50
2013,04,28,03,35,3.50
2013,04,28,03,36,3.40
2013,04,28,03,37,3.40
2013,04,28,03,38,3.40
2013,04,28,03,39,3.40
2013,04,28,03,40,3.30
2013,04,28,03,41,3.30
2013,04,28,03,42,3.30
2013,04,28,03,43,3.30
2013,04,28,03,44,3.30
2013,04,28,03,45,3.30
2013,04,28,03,46,3.30
2013,04,28,03,47,3.30
2013,04,28,03,48,3.20
2013,04,28,03,49,3.20
2013,04,28,03,50,3.20
2013,04,28,03,51,3.20
2013,04,28,03,52,3.10
2013,04,28,03,53,3.10
2013,04,28,03,54,3.10
2013,04,28,03,55,3.00
2013,04,28,03,56,3.00
2013,04,28,03,57,2.90
2013,04,28,03,58,2.90
2013,04,28,03,59,2.90
2013,04,28,04,00,2.90
2013,04,28,04,01,2.80
2013,04,28,04,02,2.80
2013,04,28,04,03,2.80
2013,04,28,04,04,2.80
2013,04,28,04,05,2.80
2013,04,28,04,06,2.70
2013,04,28,04,07,2.70
2013,04,28,04,08,2.70
2013,04,28,04,09,2.70
2013,04,28,04,10,2.70
2013,04,28,04,11,2.60
2013,04,28,04,12,2.60
2013,04,28,04,13,2.60
2013,04,28,04,14,2.60
2013,04,28,04,15,2.60
2013,04,28,04,16,2.60
2013,04,28,04,17,2.60
2013,04,28,04,18,2.60
2013,04,28,04,19,2.50
2013,04,28,04,20,2.50
2013,04,28,04,21,2.50
2013,04,28,04,22,2.50
2013,04,28,04,23,2.40
2013,04,28,04,24,2.40
2013,04,28,04,25,2.40
2013,04,28,04,26,2.40
2013,04,28,04,27,2.30
2013,04,28,04,28,2.30
2013,04,28,04,29,2.30
2013,04,28,04,30,2.30
2013,04,28,04,31,2.30
2013,04,28,04,32,2.30
2013,04,28,04,33,2.30
2013,04,28,04,34,2.30
2013,04,28,04,35,2.30
2013,04,28,04,36,2.30
2013,04,28,04,37,2.30
2013,04,28,04,38,2.30
2013,04,28,04,39,2.30
2013,04,28,04,40,2.30
2013,04,28,04,41,2.30
2013,04,28,04,42,2.30
2013,04,28,04,43,2.30
2013,04,28,04,44,2.30
2013,04,28,04,45,2.30
2013,04,28,04,46,2.30
2013,04,28,04,47,2.30
2013,04,28,04,48,2.30
2013,04,28,04,49,2.30
2013,04,28,04,50,2.20
2013,04,28,04,51,2.20
2013,04,28,04,52,2.20
2013,04,28,04,53,2.20
2013,04,28,04,54,2.20
2013,04,28,04,55,2.20
2013,04,28,04,56,2.20
2013,04,28,04,57,2.20
2013,04,28,04,58,2.20
2013,04,28,04,59,2.10
2013,04,28,05,00,2.10
2013,04,28,05,01,2.10
2013,04,28,05,02,2.00
2013,04,28,05,03,2.00
2013,04,28,05,04,2.00
2013,04,28,05,05,2.00
2013,04,28,05,06,1.90
2013,04,28,05,07,1.90
2013,04,28,05,08,1.90
2013,04,28,05,09,1.90
2013,04,28,05,10,1.90
2013,04,28,05,11,1.90
2013,04,28,05,12,1.90
2013,04,28,05,13,1.90
2013,04,28,05,14,1.90
2013,04,28,05,15,1.90
2013,04,28,05,16,1.90
2013,04,28,05,17,1.90
2013,04,28,05,18,1.90
2013,04,28,05,19,1.90
2013,04,28,05,20,1.90
2013,04,28,05,21,1.90
2013,04,28,05,22,1.90
2013,04,28,05,23,1.80
2013,04,28,05,24,1.80
2013,04,28,05,25,1.80
2013,04,28,05,26,1.80
2013,04,28,05,27,1.80
2013,04,28,05,28,1.80
2013,04,28,05,29,1.80
2013,04,28,05,30,1.80
2013,04,28,05,31,1.80
2013,04,28,05,32,1.70
2013,04,28,05,33,1.70
2013,04,28,05,34,1.70
2013,04,28,05,35,1.70
2013,04,28,05,36,1.70
2013,04,28,05,37,1.70
2013,04,28,05,38,1.70
2013,04,28,05,39,1.70
2013,04,28,05,40,1.70
2013,04,28,05,41,1.70
2013,04,28,05,42,1.70
2013,04,28,05,43,1.60
2013,04,28,05,44,1.60
2013,04,28,05,45,1.60
2013,04,28,05,46,1.60
2013,04,28,05,47,1.60
2013,04,28,05,48,1.60
2013,04,28,05,49,1.60
2013,04,28,05,50,1.50
2013,04,28,05,51,1.50
2013,04,28,05,52,1.50
2013,04,28,05,53,1.50
2013,04,28,05,54,1.50
2013,04,28,05,55,1.40
2013,04,28,05,56,1.40
2013,04,28,05,57,1.40
2013,04,28,05,58,1.40
2013,04,28,05,59,1.40
2013,04,28,06,00,1.40
2013,04,28,06,01,1.40
2013,04,28,06,02,1.40
2013,04,28,06,03,1.40
2013,04,28,06,04,1.40
2013,04,28,06,05,1.40
2013,04,28,06,06,1.40
2013,04,28,06,07,1.50
2013,04,28,06,08,1.50
2013,04,28,06,09,1.50
2013,04,28,06,10,1.50
2013,04,28,06,11,1.50
2013,04,28,06,12,1.50
2013,04,28,06,13,1.50
2013,04,28,06,14,1.50
2013,04,28,06,15,1.50
2013,04,28,06,16,1.50
2013,04,28,06,17,1.40
2013,04,28,06,18,1.40
2013,04,28,06,19,1.40
2013,04,28,06,20,1.40
2013,04,28,06,21,1.30
2013,04,28,06,22,1.30
2013,04,28,06,23,1.30
2013,04,28,06,24,1.30
2013,04,28,06,25,1.30
2013,04,28,06,26,1.30
2013,04,28,06,27,1.30
2013,04,28,06,28,1.20
2013,04,28,06,29,1.20
2013,04,28,06,30,1.20
2013,04,28,06,31,1.20
2013,04,28,06,32,1.20
2013,04,28,06,33,1.20
2013,04,28,06,34,1.20
2013,04,28,06,35,1.20
2013,04,28,06,36,1.30
2013,04,28,06,37,1.30
2013,04,28,06,38,1.30
2013,04,28,06,39,1.30
2013,04,28,06,40,1.30
2013,04,28,06,41,1.20
2013,04,28,06,42,1.20
2013,04,28,06,43,1.20
2013,04,28,06,44,1.10
2013,04,28,06,45,1.10
2013,04,28,06,46,1.00
2013,04,28,06,47,1.00
2013,04,28,06,48,1.00
2013,04,28,06,49,0.90
2013,04,28,06,50,0.90
2013,04,28,06,51,0.90
2013,04,28,06,52,0.90
2013,04,28,06,53,0.90
2013,04,28,06,54,0.90
2013,04,28,06,55,0.90
2013,04,28,06,56,0.90
2013,04,28,06,57,0.90
2013,04,28,06,58,0.90
2013,04,28,06,59,0.90
2013,04,28,07,00,0.90
2013,04,28,07,01,0.90
2013,04,28,07,02,0.90
2013,04,28,07,03,0.90
2013,04,28,07,04,0.90
2013,04,28,07,05,0.90
2013,04,28,07,06,0.90
2013,04,28,07,07,0.90
2013,04,28,07,08,0.90
2013,04,28,07,09,0.90
2013,04,28,07,10,0.90
2013,04,28,07,11,1.00
2013,04,28,07,12,1.00
2013,04,28,07,13,1.00
2013,04,28,07,14,1.10
2013,04,28,07,15,1.10
2013,04,28,07,16,1.10
2013,04,28,07,17,1.20
2013,04,28,07,18,1.20
2013,04,28,07,19,1.20
2013,04,28,07,20,1.20
2013,04,28,07,21,1.20
2013,04,28,07,22,1.30
2013,04,28,07,23,1.50
2013,04,28,07,24,1.50
2013,04,28,07,25,1.60
2013,04,28,07,26,1.70
2013,04,28,07,27,1.70
2013,04,28,07,28,1.80
2013,04,28,07,29,1.80
2013,04,28,07,30,1.90
2013,04,28,07,31,2.00
2013,04,28,07,32,2.10
2013,04,28,07,33,2.10
2013,04,28,07,34,2.20
2013,04,28,07,35,2.20
2013,04,28,07,36,2.30
2013,04,28,07,37,2.40
2013,04,28,07,38,2.40
2013,04,28,07,39,2.50
2013,04,28,07,40,2.60
2013,04,28,07,41,2.70
2013,04,28,07,42,2.80
2013,04,28,07,43,2.80
2013,04,28,07,44,2.90
2013,04,28,07,45,3.00
2013,04,28,07,46,3.10
2013,04,28,07,47,3.20
2013,04,28,07,48,3.30
2013,04,28,07,49,3.40
2013,04,28,07,50,3.50
2013,04,28,07,51,3.60
2013,04,28,07,52,3.70
2013,04,28,07,53,3.80
2013,04,28,07,54,3.90
2013,04,28,07,55,4.00
2013,04,28,07,56,4.10
2013,04,28,07,57,4.20
2013,04,28,07,58,4.30
2013,04,28,07,59,4.50
2013,04,28,08,00,4.60
2013,04,28,08,01,4.70
2013,04,28,08,02,4.80
2013,04,28,08,03,5.00
2013,04,28,08,04,5.10
2013,04,28,08,05,5.20
2013,04,28,08,06,5.30
2013,04,28,08,07,5.40
2013,04,28,08,08,5.50
2013,04,28,08,09,5.60
2013,04,28,08,10,5.70
2013,04,28,08,11,5.70
2013,04,28,08,12,5.80
2013,04,28,08,13,5.80
2013,04,28,08,14,5.70
2013,04,28,08,15,5.70
2013,04,28,08,16,5.70
2013,04,28,08,17,5.70
2013,04,28,08,18,5.70
2013,04,28,08,19,5.70
2013,04,28,08,20,5.70
2013,04,28,08,21,5.80
2013,04,28,08,22,5.80
2013,04,28,08,23,5.90
2013,04,28,08,24,6.00
2013,04,28,08,25,6.10
2013,04,28,08,26,6.20
2013,04,28,08,27,6.20
2013,04,28,08,28,6.30
2013,04,28,08,29,6.40
2013,04,28,08,30,6.40
2013,04,28,08,31,6.50
2013,04,28,08,32,6.50
2013,04,28,08,33,6.50
2013,04,28,08,34,6.60
2013,04,28,08,35,6.60
2013,04,28,08,36,6.70
2013,04,28,08,37,6.70
2013,04,28,08,38,6.80
2013,04,28,08,39,6.80
2013,04,28,08,40,6.80
2013,04,28,08,41,6.90
2013,04,28,08,42,6.90
2013,04,28,08,43,6.90
2013,04,28,08,44,6.90
2013,04,28,08,45,7.00
2013,04,28,08,46,7.10
2013,04,28,08,47,7.10
2013,04,28,08,48,7.10
2013,04,28,08,49,7.10
2013,04,28,08,50,7.10
2013,04,28,08,51,7.10
2013,04,28,08,52,7.10
2013,04,28,08,53,7.10
2013,04,28,08,54,7.20
2013,04,28,08,55,7.20
2013,04,28,08,56,7.20
2013,04,28,08,57,7.30
2013,04,28,08,58,7.30
2013,04,28,08,59,7.40
2013,04,28,09,00,7.50
2013,04,28,09,01,7.60
2013,04,28,09,02,7.70
2013,04,28,09,03,7.70
2013,04,28,09,04,7.80
2013,04,28,09,05,7.90
2013,04,28,09,06,8.00
2013,04,28,09,07,8.00
2013,04,28,09,08,8.10
2013,04,28,09,09,8.20
2013,04,28,09,10,8.30
2013,04,28,09,11,8.40
2013,04,28,09,12,8.50
2013,04,28,09,13,8.60
2013,04,28,09,14,8.60
2013,04,28,09,15,8.60
2013,04,28,09,16,8.60
2013,04,28,09,17,8.60
2013,04,28,09,18,8.50
2013,04,28,09,19,8.50
2013,04,28,09,20,8.50
2013,04,28,09,21,8.60
2013,04,28,09,22,8.60
2013,04,28,09,23,8.60
2013,04,28,09,24,8.60
2013,04,28,09,25,8.70
2013,04,28,09,26,8.70
2013,04,28,09,27,8.70
2013,04,28,09,28,8.70
2013,04,28,09,29,8.80
2013,04,28,09,30,8.80
2013,04,28,09,31,8.90
2013,04,28,09,32,9.00
2013,04,28,09,33,9.10
2013,04,28,09,34,9.10
2013,04,28,09,35,9.10
2013,04,28,09,36,9.10
2013,04,28,09,37,9.10
2013,04,28,09,38,9.10
2013,04,28,09,39,9.10
2013,04,28,09,40,9.10
2013,04,28,09,41,9.20
2013,04,28,09,42,9.20
2013,04,28,09,43,9.20
2013,04,28,09,44,9.20
2013,04,28,09,45,9.20
2013,04,28,09,46,9.20
2013,04,28,09,47,9.30
2013,04,28,09,48,9.30
2013,04,28,09,49,9.30
2013,04,28,09,50,9.30
2013,04,28,09,51,9.40
2013,04,28,09,52,9.50
2013,04,28,09,53,9.50
2013,04,28,09,54,9.60
2013,04,28,09,55,9.70
2013,04,28,09,56,9.80
2013,04,28,09,57,9.80
2013,04,28,09,58,9.80
2013,04,28,09,59,9.80
2013,04,28,10,00,9.80
2013,04,28,10,01,9.70
2013,04,28,10,02,9.70
2013,04,28,10,03,9.70
2013,04,28,10,04,9.70
2013,04,28,10,05,9.80
2013,04,28,10,06,9.70
2013,04,28,10,07,9.70
2013,04,28,10,08,9.70
2013,04,28,10,09,9.70
2013,04,28,10,10,9.70
2013,04,28,10,11,9.80
2013,04,28,10,12,9.80
2013,04,28,10,13,9.90
2013,04,28,10,14,10.00
2013,04,28,10,15,10.10
2013,04,28,10,16,10.20
2013,04,28,10,17,10.20
2013,04,28,10,18,10.20
2013,04,28,10,19,10.20
2013,04,28,10,20,10.20
2013,04,28,10,21,10.10
2013,04,28,10,22,10.10
2013,04,28,10,23,10.10
2013,04,28,10,24,10.10
2013,04,28,10,25,10.20
2013,04,28,10,26,10.20
2013,04,28,10,27,10.20
2013,04,28,10,28,10.20
2013,04,28,10,29,10.20
2013,04,28,10,30,10.10
2013,04,28,10,31,10.00
2013,04,28,10,32,10.00
2013,04,28,10,33,9.90
2013,04,28,10,34,9.90
2013,04,28,10,35,10.00
2013,04,28,10,36,10.10
2013,04,28,10,37,10.10
2013,04,28,10,38,10.10
2013,04,28,10,39,10.20
2013,04,28,10,40,10.20
2013,04,28,10,41,10.30
2013,04,28,10,42,10.30
2013,04,28,10,43,10.30
2013,04,28,10,44,10.40
2013,04,28,10,45,10.40
2013,04,28,10,46,10.50
2013,04,28,10,47,10.50
2013,04,28,10,48,10.60
2013,04,28,10,49,10.60
2013,04,28,10,50,10.70
2013,04,28,10,51,10.70
2013,04,28,10,52,10.70
2013,04,28,10,53,10.60
2013,04,28,10,54,10.50
2013,04,28,10,55,10.50
2013,04,28,10,56,10.40
2013,04,28,10,57,10.40
2013,04,28,10,58,10.40
2013,04,28,10,59,10.50
2013,04,28,11,00,10.60
2013,04,28,11,01,10.60
2013,04,28,11,02,10.70
2013,04,28,11,03,10.80
2013,04,28,11,04,10.80
2013,04,28,11,05,10.70
2013,04,28,11,06,10.60
2013,04,28,11,07,10.60
2013,04,28,11,08,10.50
2013,04,28,11,09,10.50
2013,04,28,11,10,10.50
2013,04,28,11,11,10.40
2013,04,28,11,12,10.40
2013,04,28,11,13,10.50
2013,04,28,11,14,10.60
2013,04,28,11,15,10.70
2013,04,28,11,16,10.70
2013,04,28,11,17,10.80
2013,04,28,11,18,10.80
2013,04,28,11,19,10.80
2013,04,28,11,20,10.80
2013,04,28,11,21,10.90
2013,04,28,11,22,11.00
2013,04,28,11,23,11.10
2013,04,28,11,24,11.20
2013,04,28,11,25,11.30
2013,04,28,11,26,11.30
2013,04,28,11,27,11.30
2013,04,28,11,28,11.30
2013,04,28,11,29,11.30
2013,04,28,11,30,11.20
2013,04,28,11,31,11.10
2013,04,28,11,32,11.10
2013,04,28,11,33,11.10
2013,04,28,11,34,11.00
2013,04,28,11,35,11.00
2013,04,28,11,36,11.10
2013,04,28,11,37,11.00
2013,04,28,11,38,11.00
2013,04,28,11,39,11.00
2013,04,28,11,40,11.00
2013,04,28,11,41,11.10
2013,04,28,11,42,11.20
2013,04,28,11,43,11.30
2013,04,28,11,44,11.30
2013,04,28,11,45,11.30
2013,04,28,11,46,11.40
2013,04,28,11,47,11.40
2013,04,28,11,48,11.40
2013,04,28,11,49,11.40
2013,04,28,11,50,11.40
2013,04,28,11,51,11.40
2013,04,28,11,52,11.40
2013,04,28,11,53,11.30
2013,04,28,11,54,11.20
2013,04,28,11,55,11.10
2013,04,28,11,56,11.20
2013,04,28,11,57,11.20
2013,04,28,11,58,11.30
2013,04,28,11,59,11.40
2013,04,28,12,00,11.40
2013,04,28,12,01,11.40
2013,04,28,12,02,11.40
2013,04,28,12,03,11.40
2013,04,28,12,04,11.40
2013,04,28,12,05,11.40
2013,04,28,12,06,11.60
2013,04,28,12,07,11.60
2013,04,28,12,08,11.60
2013,04,28,12,09,11.50
2013,04,28,12,10,11.40
2013,04,28,12,11,11.40
2013,04,28,12,12,11.40
2013,04,28,12,13,11.50
2013,04,28,12,14,11.50
2013,04,28,12,15,11.40
2013,04,28,12,16,11.30
2013,04,28,12,17,11.30
2013,04,28,12,18,11.20
2013,04,28,12,19,11.20
2013,04,28,12,20,11.20
2013,04,28,12,21,11.20
2013,04,28,12,22,11.10
2013,04,28,12,23,11.10
2013,04,28,12,24,11.20
2013,04,28,12,25,11.20
2013,04,28,12,26,11.20
2013,04,28,12,27,11.30
2013,04,28,12,28,11.30
2013,04,28,12,29,11.40
2013,04,28,12,30,11.50
2013,04,28,12,31,11.50
2013,04,28,12,32,11.60
2013,04,28,12,33,11.60
2013,04,28,12,34,11.60
2013,04,28,12,35,11.60
2013,04,28,12,36,11.70
2013,04,28,12,37,11.70
2013,04,28,12,38,11.70
2013,04,28,12,39,11.70
2013,04,28,12,40,11.70
2013,04,28,12,41,11.70
2013,04,28,12,42,11.80
2013,04,28,12,43,11.70
2013,04,28,12,44,11.70
2013,04,28,12,45,11.60
2013,04,28,12,46,11.60
2013,04,28,12,47,11.60
2013,04,28,12,48,11.50
2013,04,28,12,49,11.50
2013,04,28,12,50,11.40
2013,04,28,12,51,11.30
2013,04,28,12,52,11.30
2013,04,28,12,53,11.30
2013,04,28,12,54,11.40
2013,04,28,12,55,11.50
2013,04,28,12,56,11.50
2013,04,28,12,57,11.60
2013,04,28,12,58,11.60
2013,04,28,12,59,11.60
2013,04,28,13,00,11.70
2013,04,28,13,01,11.70
2013,04,28,13,02,11.70
2013,04,28,13,03,11.70
2013,04,28,13,04,11.60
2013,04,28,13,05,11.50
2013,04,28,13,06,11.50
2013,04,28,13,07,11.40
2013,04,28,13,08,11.40
2013,04,28,13,09,11.40
2013,04,28,13,10,11.30
2013,04,28,13,11,11.30
2013,04,28,13,12,11.30
2013,04,28,13,13,11.30
2013,04,28,13,14,11.20
2013,04,28,13,15,11.20
2013,04,28,13,16,11.30
2013,04,28,13,17,11.30
2013,04,28,13,18,11.30
2013,04,28,13,19,11.30
2013,04,28,13,20,11.30
2013,04,28,13,21,11.20
2013,04,28,13,22,11.20
2013,04,28,13,23,11.10
2013,04,28,13,24,11.10
2013,04,28,13,25,11.00
2013,04,28,13,26,11.00
2013,04,28,13,27,11.00
2013,04,28,13,28,11.00
2013,04,28,13,29,11.00
2013,04,28,13,30,11.10
2013,04,28,13,31,11.10
2013,04,28,13,32,11.10
2013,04,28,13,33,11.20
2013,04,28,13,34,11.20
2013,04,28,13,35,11.20
2013,04,28,13,36,11.10
2013,04,28,13,37,11.10
2013,04,28,13,38,11.10
2013,04,28,13,39,11.10
2013,04,28,13,40,11.10
2013,04,28,13,41,11.00
2013,04,28,13,42,11.00
2013,04,28,13,43,11.10
2013,04,28,13,44,11.10
2013,04,28,13,45,11.10
2013,04,28,13,46,11.10
2013,04,28,13,47,11.10
2013,04,28,13,48,11.20
2013,04,28,13,49,11.20
2013,04,28,13,50,11.20
2013,04,28,13,51,11.20
2013,04,28,13,52,11.10
2013,04,28,13,53,11.10
2013,04,28,13,54,11.10
2013,04,28,13,55,11.10
2013,04,28,13,56,11.00
2013,04,28,13,57,11.10
2013,04,28,13,58,11.10
2013,04,28,13,59,11.10
2013,04,28,14,00,11.10
2013,04,28,14,01,11.10
2013,04,28,14,02,11.10
2013,04,28,14,03,11.20
2013,04,28,14,04,11.20
2013,04,28,14,05,11.20
2013,04,28,14,06,11.20
2013,04,28,14,07,11.20
2013,04,28,14,08,11.20
2013,04,28,14,09,11.20
2013,04,28,14,10,11.20
2013,04,28,14,11,11.30
2013,04,28,14,12,11.30
2013,04,28,14,13,11.40
2013,04,28,14,14,11.40
2013,04,28,14,15,11.40
2013,04,28,14,16,11.40
2013,04,28,14,17,11.40
2013,04,28,14,18,11.50
2013,04,28,14,19,11.50
2013,04,28,14,20,11.50
2013,04,28,14,21,11.50
2013,04,28,14,22,11.50
2013,04,28,14,23,11.50
2013,04,28,14,24,11.50
2013,04,28,14,25,11.70
2013,04,28,14,26,11.70
2013,04,28,14,27,11.70
2013,04,28,14,28,11.60
2013,04,28,14,29,11.60
2013,04,28,14,30,11.60
2013,04,28,14,31,11.70
2013,04,28,14,32,11.70
2013,04,28,14,33,11.70
2013,04,28,14,34,11.70
2013,04,28,14,35,11.70
2013,04,28,14,36,11.70
2013,04,28,14,37,11.80
2013,04,28,14,38,11.80
2013,04,28,14,39,11.80
2013,04,28,14,40,11.70
2013,04,28,14,41,11.60
2013,04,28,14,42,11.50
2013,04,28,14,43,11.40
2013,04,28,14,44,11.40
2013,04,28,14,45,11.40
2013,04,28,14,46,11.50
2013,04,28,14,47,11.50
2013,04,28,14,48,11.50
2013,04,28,14,49,11.50
2013,04,28,14,50,11.50
2013,04,28,14,51,11.50
2013,04,28,14,52,11.60
2013,04,28,14,53,11.60
2013,04,28,14,54,11.70
2013,04,28,14,55,11.70
2013,04,28,14,56,11.70
2013,04,28,14,57,11.70
2013,04,28,14,58,11.80
2013,04,28,14,59,11.80
2013,04,28,15,00,11.80
2013,04,28,15,01,11.80
2013,04,28,15,02,11.80
2013,04,28,15,03,11.80
2013,04,28,15,04,11.90
2013,04,28,15,05,11.90
2013,04,28,15,06,12.00
2013,04,28,15,07,12.10
2013,04,28,15,08,12.10
2013,04,28,15,09,12.00
2013,04,28,15,10,11.90
2013,04,28,15,11,11.90
2013,04,28,15,12,11.90
2013,04,28,15,13,11.80
2013,04,28,15,14,11.70
2013,04,28,15,15,11.60
2013,04,28,15,16,11.60
2013,04,28,15,17,11.60
2013,04,28,15,18,11.60
2013,04,28,15,19,11.60
2013,04,28,15,20,11.60
2013,04,28,15,21,11.60
2013,04,28,15,22,11.60
2013,04,28,15,23,11.60
2013,04,28,15,24,11.60
2013,04,28,15,25,11.60
2013,04,28,15,26,11.50
2013,04,28,15,27,11.40
2013,04,28,15,28,11.40
2013,04,28,15,29,11.40
2013,04,28,15,30,11.50
2013,04,28,15,31,11.40
2013,04,28,15,32,11.30
2013,04,28,15,33,11.20
2013,04,28,15,34,11.20
2013,04,28,15,35,11.20
2013,04,28,15,36,11.20
2013,04,28,15,37,11.30
2013,04,28,15,38,11.30
2013,04,28,15,39,11.30
2013,04,28,15,40,11.30
2013,04,28,15,41,11.20
2013,04,28,15,42,11.20
2013,04,28,15,43,11.10
2013,04,28,15,44,11.10
2013,04,28,15,45,11.00
2013,04,28,15,46,10.90
2013,04,28,15,47,10.80
2013,04,28,15,48,10.70
2013,04,28,15,49,10.70
2013,04,28,15,50,10.70
2013,04,28,15,51,10.70
2013,04,28,15,52,10.60
2013,04,28,15,53,10.50
2013,04,28,15,54,10.50
2013,04,28,15,55,10.40
2013,04,28,15,56,10.30
2013,04,28,15,57,10.30
2013,04,28,15,58,10.20
2013,04,28,15,59,10.20
2013,04,28,16,00,10.20
2013,04,28,16,01,10.20
2013,04,28,16,02,10.20
2013,04,28,16,03,10.20
2013,04,28,16,04,10.20
2013,04,28,16,05,10.20
2013,04,28,16,06,10.20
2013,04,28,16,07,10.10
2013,04,28,16,08,10.10
2013,04,28,16,09,10.10
2013,04,28,16,10,10.10
2013,04,28,16,11,10.10
2013,04,28,16,12,10.10
2013,04,28,16,13,10.10
2013,04,28,16,14,10.00
2013,04,28,16,15,9.90
2013,04,28,16,16,9.80
2013,04,28,16,17,9.80
2013,04,28,16,18,9.90
2013,04,28,16,19,9.90
2013,04,28,16,20,9.90
2013,04,28,16,21,9.90
2013,04,28,16,22,9.90
2013,04,28,16,23,9.80
2013,04,28,16,24,9.70
2013,04,28,16,25,9.70
2013,04,28,16,26,9.70
2013,04,28,16,27,9.60
2013,04,28,16,28,9.50
2013,04,28,16,29,9.40
2013,04,28,16,30,9.40
2013,04,28,16,31,9.50
2013,04,28,16,32,9.50
2013,04,28,16,33,9.50
2013,04,28,16,34,9.40
2013,04,28,16,35,9.40
2013,04,28,16,36,9.40
2013,04,28,16,37,9.30
2013,04,28,16,38,9.30
2013,04,28,16,39,9.30
2013,04,28,16,40,9.20
2013,04,28,16,41,9.20
2013,04,28,16,42,9.20
2013,04,28,16,43,9.20
2013,04,28,16,44,9.10
2013,04,28,16,45,9.10
2013,04,28,16,46,9.10
2013,04,28,16,47,9.10
2013,04,28,16,48,9.10
2013,04,28,16,49,9.10
2013,04,28,16,50,9.00
2013,04,28,16,51,9.00
2013,04,28,16,52,9.00
2013,04,28,16,53,8.90
2013,04,28,16,54,8.90
2013,04,28,16,55,8.80
2013,04,28,16,56,8.80
2013,04,28,16,57,8.80
2013,04,28,16,58,8.70
2013,04,28,16,59,8.70
2013,04,28,17,00,8.70
2013,04,28,17,01,8.70
2013,04,28,17,02,8.70
2013,04,28,17,03,8.60
2013,04,28,17,04,8.60
2013,04,28,17,05,8.60
2013,04,28,17,06,8.60
2013,04,28,17,07,8.60
2013,04,28,17,08,8.60
2013,04,28,17,09,8.60
2013,04,28,17,10,8.70
2013,04,28,17,11,8.70
2013,04,28,17,12,8.70
2013,04,28,17,13,8.70
2013,04,28,17,14,8.70
2013,04,28,17,15,8.70
2013,04,28,17,16,8.70
2013,04,28,17,17,8.70
2013,04,28,17,18,8.70
2013,04,28,17,19,8.70
2013,04,28,17,20,8.70
2013,04,28,17,21,8.70
2013,04,28,17,22,8.60
2013,04,28,17,23,8.60
2013,04,28,17,24,8.60
2013,04,28,17,25,8.60
2013,04,28,17,26,8.60
2013,04,28,17,27,8.60
2013,04,28,17,28,8.60
2013,04,28,17,29,8.60
2013,04,28,17,30,8.60
2013,04,28,17,31,8.60
2013,04,28,17,32,8.60
2013,04,28,17,33,8.60
2013,04,28,17,34,8.50
2013,04,28,17,35,8.50
2013,04,28,17,36,8.50
2013,04,28,17,37,8.40
2013,04,28,17,38,8.40
2013,04,28,17,39,8.40
2013,04,28,17,40,8.40
2013,04,28,17,41,8.40
2013,04,28,17,42,8.40
2013,04,28,17,43,8.30
2013,04,28,17,44,8.30
2013,04,28,17,45,8.30
2013,04,28,17,46,8.30
2013,04,28,17,47,8.30
2013,04,28,17,48,8.30
2013,04,28,17,49,8.30
2013,04,28,17,50,8.30